Location: Newark
(45.0333°N, 18.2865°E)
Time: 15:56:35
(UTC+00:00)

X-37B - Pass Details

Date: 25 September 2021
Orbit: 445 x 447 km, 45.0° (Epoch: 24 October)

Event Time Altitude Azimuth Distance (km) Brightness Sun altitude
Exits shadow 02:18:02 30° 111° (ESE) 821 2.5 -24.7°
Drops below altitude 10° 02:20:14 10° 86° (E) 1,567 4.6 -24.3°
Enters shadow 03:15:35 -71° 260° (W) 12,542 8.2 -15.2°
Maximum altitude 03:54:41 89° 183° (S) 450 0.9 -8.4°
